period_start,C,m1,H,J0,J1,J2,J3,J4,J5,JA,JB,JC,JD,JJ,JK,JN,#
2018-04-05 00:00:10,0.23,9.10,0.00,25.46,28.52,31.56,14.13,49.25,1038.51,2017.00,1281.26,1541.59,1759.15,599.82,603.63,49.91,0000 0000 0000 0000 000000
2018-04-05 00:05:11,0.27,9.11,0.00,25.50,28.52,31.59,14.15,49.44,1038.24,2016.99,1279.77,1540.43,1757.74,600.18,603.98,49.96,0000 0000 0000 0000 000000
2018-04-05 00:10:12,0.23,9.12,0.00,25.57,28.52,31.64,14.09,49.52,1038.11,2016.99,1278.44,1539.28,1756.43,599.95,603.31,50.01,0000 0000 0000 0000 000000
2018-04-05 00:15:14,0.25,9.14,0.00,25.61,28.52,31.61,14.05,49.36,1038.10,2016.98,1276.88,1538.09,1755.06,599.85,603.18,50.06,0000 0000 0000 0000 000000
2018-04-05 00:20:15,0.25,9.15,0.00,25.64,28.51,31.55,14.17,49.36,1038.10,2016.99,1275.46,1536.97,1753.76,600.08,603.40,50.11,0000 0000 0000 0000 000000
2018-04-05 00:25:17,0.24,9.16,0.00,25.70,28.50,31.52,14.08,49.50,1038.01,2016.99,1274.02,1535.90,1752.56,599.80,602.87,50.16,0000 0000 0000 0000 000000
2018-04-05 00:30:18,0.23,9.17,0.00,25.73,28.50,31.48,14.07,49.44,1037.67,2016.99,1272.53,1534.93,1751.29,600.03,602.84,50.21,0000 0000 0000 0000 000000
2018-04-05 00:35:19,0.27,9.19,0.00,25.76,28.50,31.48,14.14,49.45,1037.62,2016.99,1270.95,1533.89,1749.93,600.17,602.90,50.26,0000 0000 0000 0000 000000
2018-04-05 00:40:21,0.28,9.20,0.00,25.77,28.49,31.48,14.03,49.58,1037.61,2016.99,1269.37,1532.73,1748.62,599.94,602.64,50.31,0000 0000 0000 0000 000000
2018-04-05 00:45:22,0.23,9.21,0.00,25.77,28.47,31.42,14.05,49.60,1037.61,2016.99,1267.91,1531.68,1747.44,599.55,602.30,50.36,0000 0000 0000 0000 000000
2018-04-05 00:50:23,0.23,9.22,0.00,25.78,28.46,31.37,14.02,49.56,1037.61,2016.99,1266.63,1530.65,1746.26,599.92,602.60,50.42,0000 0000 0000 0000 000000
2018-04-05 00:55:25,0.21,9.24,0.00,25.80,28.45,31.35,14.10,49.73,1037.61,2016.99,1265.29,1529.65,1745.06,599.95,602.66,50.47,0000 0000 0000 0000 000000
2018-04-05 01:00:26,0.18,9.25,0.00,25.82,28.42,31.16,14.12,50.10,1037.58,2017.01,1264.01,1528.79,1744.06,600.04,602.69,50.52,0000 0000 0000 0000 000000
2018-04-05 01:05:27,0.21,9.26,0.00,25.84,28.41,31.21,14.09,49.91,1037.48,2017.03,1262.83,1527.96,1743.06,600.22,602.65,50.57,0000 0000 0000 0000 000000
2018-04-05 01:10:28,0.22,9.27,0.00,25.85,28.39,31.13,13.99,49.75,1037.35,2017.10,1261.67,1527.06,1742.06,600.01,602.37,50.62,0000 0000 0000 0000 000000
2018-04-05 01:15:30,0.21,9.28,0.00,25.87,28.37,31.09,14.04,49.67,1037.16,2017.14,1260.50,1526.15,1741.07,599.83,601.96,50.67,0000 0000 0000 0000 000000
2018-04-05 01:20:31,0.25,9.29,0.00,25.90,28.35,31.02,14.05,49.66,1037.14,2017.40,1259.39,1525.32,1740.10,600.08,602.35,50.72,0000 0000 0000 0000 000000
2018-04-05 01:25:32,0.23,9.30,0.00,25.90,28.32,31.08,14.00,49.85,1037.13,2017.81,1258.36,1524.55,1739.19,600.27,602.58,50.77,0000 0000 0000 0000 000000
2018-04-05 01:30:33,0.19,9.31,0.00,25.92,28.30,31.02,13.99,49.98,1037.10,2017.94,1257.10,1523.73,1738.19,599.93,602.12,50.82,0000 0000 0000 0000 000000
2018-04-05 01:35:35,0.18,9.32,0.00,25.94,28.28,31.02,14.03,49.93,1037.03,2017.98,1255.98,1522.97,1737.24,599.93,601.96,50.87,0000 0000 0000 0000 000000
2018-04-05 01:40:36,0.18,9.33,0.00,25.97,28.26,31.03,14.00,49.72,1036.69,2017.99,1254.95,1522.13,1736.38,599.86,601.67,50.92,0000 0000 0000 0000 000000
2018-04-05 01:45:38,0.20,9.34,0.00,26.00,28.24,31.09,14.00,49.67,1036.65,2017.99,1253.87,1521.35,1735.52,600.05,601.72,50.97,0000 0000 0000 0000 000000
2018-04-05 01:50:39,0.20,9.35,0.00,26.02,28.22,31.02,14.03,49.63,1036.64,2018.00,1252.75,1520.61,1734.58,600.11,601.86,51.02,0000 0000 0000 0000 000000
2018-04-05 01:55:40,0.19,9.36,0.00,26.04,28.21,31.02,13.98,49.51,1036.63,2018.00,1251.61,1519.75,1733.58,599.93,601.52,51.07,0000 0000 0000 0000 000000
2018-04-05 02:00:41,0.20,9.37,0.00,26.08,28.20,31.05,14.02,49.76,1036.61,2018.02,1250.31,1518.83,1732.55,600.10,601.48,51.12,0000 0000 0000 0000 000000
2018-04-05 02:05:42,0.19,9.38,0.00,26.12,28.18,31.04,14.03,49.53,1036.43,2018.02,1249.11,1517.93,1731.54,600.11,601.46,51.17,0000 0000 0000 0000 000000
2018-04-05 02:10:43,0.30,9.39,0.00,26.14,28.17,31.09,13.91,49.58,1036.20,2018.06,1247.64,1516.77,1730.24,599.77,600.87,51.22,0000 0000 0000 0000 000000
2018-04-05 02:15:45,0.34,9.41,0.00,26.15,28.17,31.09,13.95,49.50,1036.17,2018.09,1245.62,1515.46,1728.62,599.81,600.95,51.27,0000 0000 0000 0000 000000
2018-04-05 02:20:46,0.23,9.43,0.00,26.18,28.16,31.08,13.99,49.56,1036.17,2018.18,1244.17,1514.35,1727.46,599.98,600.99,51.32,0000 0000 0000 0000 000000
2018-04-05 02:25:48,0.27,9.44,0.00,26.21,28.15,31.13,14.09,49.65,1036.15,2018.22,1242.53,1513.15,1726.23,600.16,601.36,51.37,0000 0000 0000 0000 000000
2018-04-05 02:30:49,0.24,9.45,0.00,26.23,28.15,31.13,13.99,49.65,1036.15,2018.23,1241.13,1512.07,1725.00,599.99,600.90,51.43,0000 0000 0000 0000 000000
2018-04-05 02:35:50,0.24,9.47,0.00,26.25,28.15,31.08,14.02,49.69,1036.14,2018.39,1239.85,1511.14,1723.96,600.06,600.90,51.48,0000 0000 0000 0000 000000
2018-04-05 02:40:52,0.27,9.48,0.00,26.29,28.15,31.12,13.90,49.63,1036.07,2018.66,1238.59,1510.23,1722.98,600.04,600.81,51.53,0000 0000 0000 0000 000000
2018-04-05 02:45:53,0.19,9.49,0.00,26.33,28.15,31.08,13.95,49.56,1035.96,2018.69,1237.53,1509.45,1721.98,600.10,600.80,51.58,0000 0000 0000 0000 000000
2018-04-05 02:50:54,0.20,9.50,0.00,26.36,28.15,31.10,14.12,49.67,1036.02,2018.70,1236.42,1508.60,1720.96,600.23,600.83,51.63,0000 0000 0000 0000 000000
2018-04-05 02:55:56,0.19,9.51,0.00,26.37,28.15,31.09,14.04,49.53,1035.89,2018.78,1235.22,1507.80,1720.01,600.20,600.79,51.68,0000 0000 0000 0000 000000
2018-04-05 03:00:57,0.21,9.52,0.00,26.36,28.15,31.08,13.98,49.52,1035.97,2018.70,1234.07,1506.83,1718.98,600.00,600.62,51.73,0000 0000 0000 0000 000000
2018-04-05 03:05:58,0.25,9.53,0.00,26.12,28.15,31.06,14.05,49.57,1035.97,2018.67,1232.61,1505.82,1717.79,600.27,601.18,51.78,0000 0000 0000 0000 000000
2018-04-05 03:11:00,0.22,9.54,0.00,26.05,28.17,31.04,14.07,49.66,1035.71,2018.67,1231.28,1504.85,1716.63,600.17,601.00,51.83,0000 0000 0000 0000 000000
2018-04-05 03:16:01,0.23,9.56,0.00,26.04,28.17,31.02,14.02,49.72,1035.67,2018.64,1229.78,1503.85,1715.47,600.31,601.09,51.88,0000 0000 0000 0000 000000
2018-04-05 03:21:02,0.22,9.56,0.00,26.04,28.17,31.03,14.08,49.63,1035.67,2018.41,1228.48,1502.81,1714.33,600.18,601.14,51.93,0000 0000 0000 0000 000000
2018-04-05 03:26:03,0.16,9.58,0.00,26.07,28.17,31.04,14.02,49.67,1035.66,2018.14,1227.28,1501.85,1713.21,600.03,600.95,51.98,0000 0000 0000 0000 000000
2018-04-05 03:31:05,0.26,9.59,0.00,26.09,28.20,31.08,13.90,49.67,1035.68,2018.08,1225.92,1500.77,1712.02,599.77,600.71,52.03,0000 0000 0000 0000 000000
2018-04-05 03:36:06,0.21,9.60,0.00,26.09,28.20,31.08,13.99,49.72,1035.66,2018.14,1224.65,1499.87,1710.92,600.15,601.13,52.08,0000 0000 0000 0000 000000
2018-04-05 03:41:07,0.20,9.61,0.00,26.11,28.22,31.07,14.08,49.75,1035.65,2018.07,1223.45,1498.95,1709.87,600.28,601.15,52.13,0000 0000 0000 0000 000000
2018-04-05 03:46:09,0.22,9.62,0.00,26.14,28.23,31.08,13.99,49.65,1035.50,2018.04,1222.27,1497.98,1708.78,599.90,600.72,52.18,0000 0000 0000 0000 000000
2018-04-05 03:51:10,0.26,9.63,0.00,26.20,28.25,31.12,14.05,49.73,1035.37,2018.04,1220.86,1497.00,1707.63,599.95,600.42,52.23,0000 0000 0000 0000 000000
2018-04-05 03:56:12,0.21,9.65,0.00,26.21,28.27,31.11,13.95,49.64,1035.46,2018.01,1219.65,1496.06,1706.56,599.67,600.22,52.29,0000 0000 0000 0000 000000
2018-04-05 04:01:13,0.22,9.66,0.00,26.23,28.28,31.15,14.00,49.81,1035.47,2018.00,1218.41,1495.18,1705.44,599.98,600.53,52.34,0000 0000 0000 0000 000000
2018-04-05 04:06:14,0.20,9.67,0.00,26.26,28.30,31.18,14.02,49.73,1035.18,2018.00,1217.32,1494.26,1704.54,600.17,600.49,52.39,0000 0000 0000 0000 000000
2018-04-05 04:11:16,0.20,9.68,0.00,26.29,28.32,31.17,14.01,49.74,1035.17,2018.00,1216.20,1493.31,1703.43,600.18,600.51,52.44,0000 0000 0000 0000 000000
2018-04-05 04:16:17,0.19,9.69,0.00,26.33,28.35,31.21,13.99,49.71,1035.17,2018.00,1215.11,1492.52,1702.48,599.98,600.27,52.49,0000 0000 0000 0000 000000
2018-04-05 04:21:18,0.19,9.70,0.00,26.37,28.36,31.21,13.95,49.69,1035.14,2018.00,1214.10,1491.63,1701.47,600.03,600.12,52.54,0000 0000 0000 0000 000000
2018-04-05 04:26:19,0.22,9.71,0.00,26.42,28.38,31.24,14.02,49.72,1035.14,2017.98,1212.94,1490.70,1700.36,600.11,600.09,52.59,0000 0000 0000 0000 000000
2018-04-05 04:31:21,0.16,9.72,0.00,26.46,28.41,31.24,13.97,49.65,1035.15,2017.98,1211.89,1489.88,1699.39,599.69,599.82,52.64,0000 0000 0000 0000 000000
2018-04-05 04:36:22,0.22,9.73,0.00,26.48,28.42,31.30,13.97,49.84,1035.17,2017.95,1210.78,1488.98,1698.40,599.88,599.82,52.69,0000 0000 0000 0000 000000
2018-04-05 04:41:23,0.19,9.74,0.00,26.53,28.45,31.29,13.97,49.83,1035.17,2017.75,1209.62,1488.10,1697.40,600.05,599.85,52.74,0000 0000 0000 0000 000000
2018-04-05 04:46:24,0.14,9.75,0.00,26.56,28.47,31.32,13.92,49.72,1035.16,2017.27,1208.50,1487.20,1696.32,599.77,599.46,52.79,0000 0000 0000 0000 000000
2018-04-05 04:51:26,0.19,9.76,0.00,26.58,28.49,31.35,13.95,49.63,1035.14,2017.08,1207.36,1486.29,1695.33,599.74,599.44,52.84,0000 0000 0000 0000 000000
2018-04-05 04:56:27,0.21,9.77,0.00,26.62,28.51,31.40,13.86,49.57,1035.06,2017.01,1206.04,1485.31,1694.14,599.65,599.18,52.89,0000 0000 0000 0000 000000
2018-04-05 05:01:28,0.23,9.78,0.00,26.65,28.53,31.43,13.92,49.58,1035.14,2017.00,1204.85,1484.44,1693.07,599.87,599.49,52.94,0000 0000 0000 0000 000000
2018-04-05 05:06:29,0.23,9.79,0.00,26.69,28.56,31.46,13.97,49.77,1035.16,2017.00,1203.66,1483.54,1692.04,600.13,599.58,52.99,0000 0000 0000 0000 000000
2018-04-05 05:11:30,0.19,9.80,0.00,26.73,28.59,31.46,13.95,49.61,1034.99,2016.99,1202.65,1482.66,1691.04,599.69,598.96,53.04,0000 0000 0000 0000 000000
2018-04-05 05:16:31,0.16,9.81,0.00,26.77,28.61,31.49,14.00,49.54,1034.71,2016.99,1201.69,1481.87,1690.08,599.93,599.04,53.09,0000 0000 0000 0000 000000
2018-04-05 05:21:33,0.21,9.82,0.00,26.80,28.64,31.51,13.90,49.53,1034.80,2016.97,1200.57,1480.94,1689.04,600.17,599.13,53.14,0000 0000 0000 0000 000000
2018-04-05 05:26:35,0.20,9.83,0.00,26.84,28.67,31.54,13.92,49.58,1034.76,2016.91,1199.32,1480.06,1688.04,599.92,598.84,53.20,0000 0000 0000 0000 000000
2018-04-05 05:31:36,0.13,9.84,0.00,26.87,28.70,31.58,13.86,49.66,1034.69,2016.59,1198.43,1479.22,1687.04,599.63,598.50,53.25,0000 0000 0000 0000 000000
2018-04-05 05:36:37,0.16,9.85,0.00,26.92,28.73,31.63,13.92,49.65,1034.71,2016.11,1197.16,1478.21,1685.95,599.90,598.68,53.30,0000 0000 0000 0000 000000
2018-04-05 05:41:38,0.19,9.85,0.00,26.96,28.76,31.64,13.90,49.63,1034.69,2016.02,1196.30,1477.46,1684.99,599.87,598.35,53.35,0000 0000 0000 0000 000000
2018-04-05 05:46:40,0.20,9.86,0.00,27.00,28.80,31.66,13.80,49.55,1034.69,2016.01,1195.23,1476.56,1684.02,599.84,598.43,53.40,0000 0000 0000 0000 000000
2018-04-05 05:51:41,0.19,9.88,0.00,27.03,28.83,31.70,13.82,49.46,1034.69,2016.00,1194.08,1475.77,1683.01,599.65,598.22,53.45,0000 0000 0000 0000 000000
2018-04-05 05:56:42,0.23,9.89,0.00,27.08,28.86,31.74,13.89,49.47,1034.69,2016.00,1192.82,1474.81,1681.92,600.20,598.55,53.50,0000 0000 0000 0000 000000
2018-04-05 06:01:44,0.21,9.90,0.00,27.12,28.90,31.77,13.86,49.56,1034.68,2015.99,1191.71,1473.91,1680.87,599.68,597.99,53.55,0000 0000 0000 0000 000000
2018-04-05 06:06:45,0.20,9.91,0.00,27.16,28.94,31.80,14.03,49.57,1034.68,2015.98,1190.66,1473.03,1679.90,600.26,598.49,53.60,0000 0000 0000 0000 000000
2018-04-05 06:11:46,0.17,9.92,0.00,27.19,28.97,31.83,13.93,49.49,1034.68,2015.77,1189.57,1472.13,1678.87,600.10,598.11,53.65,0000 0000 0000 0000 000000
2018-04-05 06:16:47,0.13,9.92,0.00,27.26,29.01,31.89,13.92,49.52,1034.68,2015.13,1188.49,1471.30,1677.84,599.98,598.04,53.70,0000 0000 0000 0000 000000
2018-04-05 06:21:48,0.15,9.93,0.00,27.32,29.04,31.91,13.90,49.58,1034.68,2015.02,1187.64,1470.61,1676.89,600.26,598.13,53.75,0000 0000 0000 0000 000000
2018-04-05 06:26:50,0.20,9.94,0.00,27.38,29.08,31.94,13.95,49.44,1034.68,2015.00,1186.60,1469.77,1675.89,600.19,597.99,53.80,0000 0000 0000 0000 000000
2018-04-05 06:31:51,0.18,9.95,0.00,27.42,29.12,31.97,13.87,49.43,1034.68,2014.98,1185.60,1468.91,1674.87,600.09,597.79,53.85,0000 0000 0000 0000 000000
2018-04-05 06:36:52,0.16,9.96,0.00,27.46,29.16,32.02,13.91,49.42,1034.68,2014.80,1184.58,1468.04,1673.87,600.17,597.84,53.90,0000 0000 0000 0000 000000
2018-04-05 06:41:53,0.14,9.97,0.00,27.53,29.20,32.04,13.86,49.49,1034.68,2014.23,1183.48,1467.12,1672.84,600.23,597.80,53.95,0000 0000 0000 0000 000000
2018-04-05 06:46:55,0.19,9.98,0.00,27.55,29.24,32.09,13.99,49.44,1034.64,2014.04,1182.39,1466.17,1671.82,600.43,597.86,54.00,0000 0000 0000 0000 000000
2018-04-05 06:51:56,0.21,9.99,0.00,27.57,29.28,32.13,13.88,49.37,1034.57,2014.00,1181.21,1465.28,1670.77,600.08,597.28,54.05,0000 0000 0000 0000 000000
2018-04-05 06:56:57,0.21,10.00,0.00,27.63,29.32,32.15,13.96,49.63,1034.55,2013.99,1180.20,1464.47,1669.72,599.98,597.06,54.11,0000 0000 0000 0000 000000
2018-04-05 07:01:59,0.21,10.01,0.00,27.69,29.37,32.20,13.86,49.46,1034.52,2013.96,1179.03,1463.53,1668.65,599.94,596.95,54.16,0000 0000 0000 0000 000000
2018-04-05 07:07:00,0.11,10.02,0.00,27.72,29.41,32.24,13.88,49.44,1034.43,2013.50,1177.98,1462.59,1667.60,600.02,597.05,54.21,0000 0000 0000 0000 000000
2018-04-05 07:12:01,0.19,10.02,0.00,27.77,29.46,32.28,13.85,49.42,1034.27,2013.04,1176.87,1461.63,1666.49,599.54,596.34,54.26,0000 0000 0000 0000 000000
2018-04-05 07:17:02,0.21,10.04,0.00,27.82,29.50,32.32,13.92,49.58,1034.22,2013.00,1175.78,1460.73,1665.40,600.21,596.79,54.31,0000 0000 0000 0000 000000
2018-04-05 07:22:03,0.23,10.05,0.00,27.88,29.54,32.36,13.88,49.44,1034.32,2012.99,1174.61,1459.81,1664.37,599.76,596.31,54.36,0000 0000 0000 0000 000000
2018-04-05 07:27:04,0.22,10.06,0.00,27.92,29.59,32.41,13.88,49.52,1034.47,2012.95,1173.41,1458.88,1663.28,599.91,596.52,54.41,0000 0000 0000 0000 000000
2018-04-05 07:32:06,0.12,10.07,0.00,27.96,29.63,32.45,13.90,49.54,1034.29,2012.64,1172.50,1457.99,1662.40,599.87,596.26,54.46,0000 0000 0000 0000 000000
2018-04-05 07:37:07,0.15,10.08,0.00,28.01,29.68,32.50,13.84,49.35,1034.31,2012.10,1171.31,1457.07,1661.33,599.93,596.22,54.51,0000 0000 0000 0000 000000
2018-04-05 07:42:08,0.21,10.09,0.00,28.08,29.73,32.52,13.84,49.38,1034.23,2012.02,1170.15,1456.13,1660.27,599.98,596.12,54.56,0000 0000 0000 0000 000000
2018-04-05 07:47:09,0.21,10.10,0.00,28.12,29.76,32.58,13.85,49.44,1034.22,2012.00,1169.13,1455.24,1659.21,599.93,595.87,54.61,0000 0000 0000 0000 000000
2018-04-05 07:52:11,0.20,10.11,0.00,28.14,29.81,32.63,13.86,49.44,1034.36,2011.94,1168.30,1454.37,1658.22,600.27,596.36,54.66,0000 0000 0000 0000 000000
2018-04-05 07:57:12,0.18,10.12,0.00,28.19,29.85,32.67,13.83,49.30,1034.25,2011.49,1166.83,1453.39,1657.08,599.92,595.85,54.71,0000 0000 0000 0000 000000
2018-04-05 08:02:13,0.19,10.12,0.00,28.26,29.89,32.70,13.82,49.29,1034.21,2011.12,1165.56,1452.44,1656.02,600.02,595.75,54.76,0000 0000 0000 0000 000000
2018-04-05 08:07:15,0.18,10.13,0.00,28.31,29.94,32.75,13.84,49.20,1034.22,2011.01,1164.68,1451.61,1654.96,599.80,595.53,54.81,0000 0000 0000 0000 000000
2018-04-05 08:12:16,0.14,10.14,0.00,28.35,29.99,32.79,13.85,49.21,1034.25,2010.98,1163.89,1450.81,1653.98,599.89,595.29,54.86,0000 0000 0000 0000 000000
2018-04-05 08:17:17,0.21,10.15,0.00,28.40,30.03,32.85,13.83,49.22,1034.31,2010.83,1162.74,1449.90,1652.99,600.06,595.67,54.91,0000 0000 0000 0000 000000
2018-04-05 08:22:18,0.11,10.16,0.00,28.44,30.07,32.90,13.85,49.32,1034.24,2010.24,1161.59,1449.02,1651.97,600.04,595.41,54.97,0000 0000 0000 0000 000000
2018-04-05 08:27:20,0.13,10.17,0.00,28.50,30.12,32.96,13.79,49.17,1034.26,2010.02,1160.92,1448.16,1651.00,600.08,595.45,55.02,0000 0000 0000 0000 000000
2018-04-05 08:32:21,0.26,10.18,0.00,28.53,30.16,33.01,13.84,49.09,1034.26,2010.00,1159.77,1447.28,1650.01,600.19,595.36,55.07,0000 0000 0000 0000 000000
2018-04-05 08:37:22,0.16,10.19,0.00,28.57,30.20,33.05,13.93,49.19,1034.24,2009.97,1158.84,1446.61,1649.06,600.51,595.63,55.12,0000 0000 0000 0000 000000
2018-04-05 08:42:24,0.13,10.20,0.00,28.59,30.24,33.12,13.88,49.09,1034.21,2009.64,1157.84,1445.75,1648.07,600.06,595.12,55.17,0000 0000 0000 0000 000000
2018-04-05 08:47:25,0.17,10.20,0.00,28.62,30.28,33.15,13.83,49.05,1034.22,2009.19,1156.65,1444.90,1647.15,599.80,594.96,55.22,0000 0000 0000 0000 000000
2018-04-05 08:52:26,0.20,10.21,0.00,28.65,30.32,33.20,13.86,48.99,1034.22,2009.01,1155.37,1444.03,1646.11,600.27,595.21,55.27,0000 0000 0000 0000 000000
2018-04-05 08:57:28,0.18,10.22,0.00,28.68,30.36,33.24,13.85,49.05,1034.21,2009.00,1154.71,1443.18,1645.18,600.36,595.25,55.32,0000 0000 0000 0000 000000
2018-04-05 09:02:29,0.21,10.23,0.00,28.71,30.39,33.28,13.86,49.16,1034.20,2008.98,1153.72,1442.37,1644.28,599.55,594.41,55.37,0000 0000 0000 0000 000000
2018-04-05 09:07:30,0.13,10.24,0.00,28.72,30.43,33.35,13.80,48.99,1034.20,2008.84,1152.86,1441.70,1643.47,600.05,595.02,55.42,0000 0000 0000 0000 000000
2018-04-05 09:12:32,0.10,10.25,0.00,28.74,30.46,33.36,13.80,48.97,1034.21,2008.36,1151.86,1440.95,1642.45,600.05,594.92,55.47,0000 0000 0000 0000 000000
2018-04-05 09:17:33,0.22,10.25,0.00,28.73,30.50,33.42,13.82,48.98,1034.21,2008.07,1150.64,1440.07,1641.50,599.89,594.81,55.52,0000 0000 0000 0000 000000
2018-04-05 09:22:34,0.19,10.27,0.00,28.76,30.53,33.44,13.88,48.97,1034.21,2008.00,1149.68,1439.18,1640.55,600.26,595.03,55.57,0000 0000 0000 0000 000000
2018-04-05 09:27:36,0.21,10.27,0.00,28.77,30.56,33.47,13.88,49.01,1034.21,2008.00,1148.65,1438.35,1639.65,599.64,594.53,55.62,0000 0000 0000 0000 000000
2018-04-05 09:32:37,0.20,10.28,0.00,28.77,30.59,33.51,13.80,48.94,1034.23,2008.00,1147.65,1437.57,1638.69,599.91,594.63,55.67,0000 0000 0000 0000 000000
2018-04-05 09:37:38,0.21,10.30,0.00,28.79,30.62,33.53,13.88,48.93,1034.31,2007.96,1146.45,1436.72,1637.68,599.78,594.54,55.72,0000 0000 0000 0000 000000
2018-04-05 09:42:39,0.14,10.31,0.00,28.81,30.65,33.58,13.75,48.99,1034.51,2007.85,1145.41,1435.99,1636.82,599.37,594.24,55.77,0000 0000 0000 0000 000000
2018-04-05 09:47:41,0.02,10.31,0.00,28.81,30.68,33.59,13.76,48.92,1034.60,2007.33,1145.00,1435.37,1636.08,599.76,594.70,55.82,0000 0000 0000 0000 000000
2018-04-05 09:52:42,0.21,10.32,0.00,28.83,30.71,33.62,13.82,48.95,1034.42,2007.06,1143.81,1434.54,1635.12,600.25,594.94,55.87,0000 0000 0000 0000 000000
2018-04-05 09:57:44,0.22,10.33,0.00,28.84,30.74,33.64,13.88,48.92,1034.55,2007.01,1142.67,1433.68,1634.17,600.66,595.52,55.92,0000 0000 0000 0000 000000
2018-04-05 10:02:45,0.09,10.34,0.00,28.82,30.76,33.69,13.81,48.90,1034.60,2007.00,1142.05,1433.01,1633.33,599.79,594.69,55.98,0000 0000 0000 0000 000000
2018-04-05 10:07:46,0.11,10.34,0.00,28.82,30.79,33.70,13.80,48.86,1034.35,2006.99,1141.81,1432.53,1632.83,600.09,594.95,56.03,0000 0000 0000 0000 000000
2018-04-05 10:12:48,0.18,10.35,0.00,28.82,30.81,33.74,13.79,48.77,1034.49,2006.92,1140.81,1431.88,1631.97,599.81,594.71,56.08,0000 0000 0000 0000 000000
2018-04-05 10:17:49,0.16,10.36,0.00,28.83,30.83,33.76,13.86,48.80,1034.63,2006.73,1139.81,1431.05,1631.11,599.75,594.67,56.13,0000 0000 0000 0000 000000
2018-04-05 10:22:50,0.17,10.37,0.00,28.81,30.85,33.77,13.76,48.79,1034.48,2006.33,1138.68,1430.23,1630.18,600.33,595.11,56.18,0000 0000 0000 0000 000000
2018-04-05 10:27:51,0.20,10.37,0.00,28.80,30.87,33.81,13.84,48.82,1034.34,2006.14,1137.59,1429.55,1629.32,599.63,594.18,56.23,0000 0000 0000 0000 000000
2018-04-05 10:32:53,0.06,10.38,0.00,28.78,30.89,33.83,13.86,48.81,1034.36,2006.03,1136.99,1428.99,1628.67,600.04,594.85,56.28,0000 0000 0000 0000 000000
2018-04-05 10:37:54,0.19,10.39,0.00,28.75,30.90,33.87,13.83,48.77,1034.40,2006.00,1136.23,1428.23,1627.88,600.31,595.22,56.33,0000 0000 0000 0000 000000
2018-04-05 10:42:55,0.16,10.40,0.00,28.70,30.91,33.90,13.79,48.88,1034.58,2006.00,1135.33,1427.71,1627.07,599.94,595.06,56.38,0000 0000 0000 0000 000000
2018-04-05 10:47:56,0.18,10.41,0.00,28.68,30.92,33.92,13.89,48.95,1034.49,2006.00,1134.34,1427.01,1626.25,599.89,595.03,56.43,0000 0000 0000 0000 000000
2018-04-05 10:52:58,0.21,10.42,0.00,28.64,30.93,33.91,13.88,48.78,1034.38,2006.00,1133.41,1426.25,1625.49,599.98,595.01,56.48,0000 0000 0000 0000 000000
2018-04-05 10:57:59,0.04,10.42,0.00,28.61,30.95,33.90,13.86,48.78,1034.26,2006.00,1132.94,1425.91,1624.95,599.95,595.18,56.53,0000 0000 0000 0000 000000
2018-04-05 11:03:00,0.26,10.43,0.00,28.58,30.95,33.90,13.87,48.82,1034.25,2005.99,1131.75,1425.08,1624.11,600.33,595.44,56.58,0000 0000 0000 0000 000000
2018-04-05 11:08:02,0.15,10.44,0.00,28.55,30.95,33.90,13.86,48.90,1034.21,2005.99,1130.98,1424.30,1623.24,599.89,595.02,56.63,0000 0000 0000 0000 000000
2018-04-05 11:13:03,0.24,10.45,0.00,28.52,30.95,33.87,13.87,48.85,1034.20,2005.99,1129.79,1423.68,1622.47,599.96,595.30,56.68,0000 0000 0000 0000 000000
2018-04-05 11:18:04,0.09,10.46,0.00,28.48,30.95,33.87,13.88,48.88,1034.20,2005.99,1129.01,1423.02,1621.89,600.16,595.49,56.73,0000 0000 0000 0000 000000
2018-04-05 11:23:05,0.21,10.47,0.00,28.46,30.95,33.87,13.89,48.98,1034.19,2005.98,1128.16,1422.36,1621.04,599.59,594.96,56.78,0000 0000 0000 0000 000000
2018-04-05 11:28:06,0.16,10.48,0.00,28.44,30.95,33.86,13.86,48.88,1034.19,2005.98,1127.23,1421.83,1620.17,600.21,595.52,56.83,0000 0000 0000 0000 000000
2018-04-05 11:33:08,0.17,10.49,0.00,28.40,30.94,33.84,13.86,48.94,1034.14,2005.98,1126.52,1421.10,1619.56,600.02,595.46,56.88,0000 0000 0000 0000 000000
2018-04-05 11:38:09,0.16,10.49,0.00,28.37,30.93,33.86,13.89,48.97,1033.83,2005.99,1125.64,1420.57,1618.87,600.11,595.48,56.93,0000 0000 0000 0000 000000
2018-04-05 11:43:10,0.13,10.50,0.00,28.32,30.92,33.85,13.88,49.19,1033.74,2005.99,1124.76,1419.98,1618.06,599.77,595.26,56.99,0000 0000 0000 0000 000000
2018-04-05 11:48:11,0.17,10.51,0.00,28.28,30.92,33.86,13.90,49.08,1033.74,2005.99,1124.00,1419.20,1617.37,600.67,596.05,57.04,0000 0000 0000 0000 000000
2018-04-05 11:53:13,0.12,10.52,0.00,28.27,30.90,33.83,13.93,48.99,1033.77,2005.99,1123.14,1418.91,1616.88,599.95,595.49,57.09,0000 0000 0000 0000 000000
2018-04-05 11:58:14,0.19,10.53,0.00,28.25,30.90,33.83,13.83,48.91,1033.72,2005.99,1122.46,1418.11,1616.07,599.63,595.11,57.14,0000 0000 0000 0000 000000
2018-04-05 12:03:15,0.15,10.53,0.00,28.22,30.89,33.84,13.81,48.91,1033.72,2005.99,1121.73,1417.68,1615.39,599.82,595.37,57.19,0000 0000 0000 0000 000000
2018-04-05 12:08:17,0.08,10.54,0.00,28.18,30.87,33.84,13.85,49.01,1033.71,2005.99,1121.02,1417.03,1614.96,599.81,595.49,57.24,0000 0000 0000 0000 000000
2018-04-05 12:13:18,0.12,10.55,0.00,28.15,30.86,33.84,13.88,48.99,1033.71,2005.99,1120.67,1416.79,1614.20,599.86,595.53,57.29,0000 0000 0000 0000 000000
2018-04-05 12:18:19,0.22,10.56,0.00,28.10,30.85,33.86,13.88,48.94,1033.70,2005.99,1119.55,1416.03,1613.49,600.13,595.96,57.34,0000 0000 0000 0000 000000
2018-04-05 12:23:20,0.20,10.57,0.00,28.07,30.84,33.85,13.95,49.03,1033.47,2006.00,1118.33,1415.24,1612.82,600.13,595.76,57.39,0000 0000 0000 0000 000000
2018-04-05 12:28:21,0.08,10.57,0.00,28.06,30.82,33.89,13.90,49.04,1033.42,2006.01,1117.77,1414.95,1612.03,600.09,595.64,57.44,0000 0000 0000 0000 000000
2018-04-05 12:33:23,0.21,10.58,0.00,28.02,30.80,33.84,13.93,49.05,1033.52,2006.02,1116.85,1414.15,1611.43,600.00,595.84,57.49,0000 0000 0000 0000 000000
2018-04-05 12:38:24,0.14,10.59,0.00,28.00,30.79,33.82,13.96,49.14,1033.55,2006.05,1116.03,1413.68,1610.79,599.99,595.91,57.54,0000 0000 0000 0000 000000
2018-04-05 12:43:26,0.17,10.60,0.00,27.95,30.77,33.80,13.86,49.11,1033.62,2006.09,1115.45,1413.02,1610.05,599.81,595.86,57.59,0000 0000 0000 0000 000000
2018-04-05 12:48:27,0.24,10.61,0.00,27.92,30.75,33.81,13.92,49.13,1033.62,2006.15,1114.27,1412.41,1609.31,599.86,595.88,57.64,0000 0000 0000 0000 000000